Location: Catstown
(52.4386°N, 7.2633°W)
Time: 15:04:13
(UTC+00:00)

Cosmos 1833 Rocket - Pass Details

Date: 25 January 2021
Orbit: 833 x 839 km, 71.0° (Epoch: 06 March)

Event Time Altitude Azimuth Distance (km) Brightness Sun altitude
Rises 18:04:54 0° 329° (NNW) 3,393 6.0 -9.4°
Reaches altitude 10° 18:07:31 10° 337° (NNW) 2,456 5.2 -9.8°
Maximum altitude 18:12:48 40° 47° (NE) 1,218 3.1 -10.5°
Drops below altitude 10° 18:18:04 10° 116° (ESE) 2,447 4.7 -11.3°
Enters shadow 18:20:13 - 123° (ESE) 3,220 5.3 -11.6°
